Location: Bush Observatory
(40.2653°N, 94.3194°W)
Time: 14:34:33
(UTC-06:00)

Daily predictions for brighter satellites

Satellite Brightness Start Highest point End
(mag) Time Altitude Azimuth Time Altitude Azimuth Time Altitude Azimuth
Meteor 1-13 Rocket 4.4 18:22:42 10° N 18:28:10 54° ENE 18:33:42 10° SSE
Cosmos 2219 3.7 18:25:44 10° S 18:31:00 39° ESE 18:36:17 10° NE
Abrixas rocket 2.4 18:30:01 10° SW 18:33:19 60° SE 18:36:39 10° ENE
FREGAT/IRIS 3.6 18:30:41 10° SE 18:33:22 27° ENE 18:36:03 10° NNE
Cosmos 2227 Rocket 3.9 18:32:03 10° ESE 18:33:31 11° E 18:34:58 10° E
Cosmos 1023 Rocket 4.4 18:29:31 10° SSW 18:34:35 77° ESE 18:39:45 10° NNE
Cosmos 1300 Rocket 3.6 18:33:30 10° S 18:37:51 61° E 18:42:14 10° NNE
Cosmos 1536 3.4 18:35:31 10° SSE 18:39:08 35° E 18:42:47 10° NNE
Okean 1 4.2 18:38:35 10° NNW 18:42:35 56° W 18:46:33 10° S
Cosmos 1340 3.0 18:46:21 10° NNW 18:50:08 69° W 18:53:53 10° S
COSMO-SKYMED 1 3.5 18:46:22 10° N 18:50:36 52° WNW 18:54:48 10° SSW
Cosmos 1602 3.8 18:46:55 10° S 18:50:47 85° W 18:54:44 10° N
Cosmos 1741 Rocket 3.9 18:52:37 10° S 18:57:48 74° ESE 19:03:01 10° NNE
Resurs 01 Rocket 2.2 18:56:05 10° SE 19:00:04 35° ENE 19:04:05 10° N
NOAA 12 4.3 18:58:41 10° S 19:04:00 80° WSW 19:09:21 10° NNW
Meteor 1-11 Rocket 3.9 18:59:53 10° S 19:05:42 83° W 19:11:41 10° N
Cosmos 1140 Rocket 4.3 19:01:33 10° SW 19:06:34 55° WNW 19:11:39 10° N
Cosmos 614 Rocket 4.2 19:02:16 10° SSW 19:07:20 72° WNW 19:12:25 10° NNE
Cosmos 2333 Rocket 2.9 19:03:51 10° N 19:09:02 33° ENE 19:12:59 16° ESE
Resurs 1-3 4.1 19:06:25 10° SE 19:10:28 38° ENE 19:14:32 10° N
FENGYUN 3A 3.6 19:06:12 10° SSE 19:11:32 64° ENE 19:16:54 10° N
GPS 2-04 Rocket1 3.6 19:07:35 10° WSW 19:11:36 43° S 19:14:12 20° ESE
Cosmos 1633 4.3 19:09:32 10° SSW 19:12:58 37° WNW 19:16:25 10° N
GEOS 3 Rocket 4.1 19:08:49 10° NE 19:13:45 40° ESE 19:18:41 10° S
Genesis I 3.9 19:12:01 10° NW 19:15:54 56° WSW 19:19:43 10° SSE
Cosmos 1570 Rocket 4.1 19:12:06 10° NNW 19:17:20 82° WSW 19:22:35 10° SSE
Okean 1 Rocket 3.6 19:14:17 10° SSW 19:18:43 63° W 19:23:12 10° N
Cosmos 1238 Rocket 4.2 19:17:20 10° NNW 19:19:59 31° W 19:22:45 10° SSW
SL-19 R/B 4.4 19:15:51 10° SSE 19:21:30 66° ENE 19:27:34 10° N
OTV 4 1.7 19:19:44 10° SW 19:22:16 25° SSE 19:22:38 25° SSE
Cosmos 1892 Rocket 4.0 19:19:11 10° N 19:23:15 38° ENE 19:26:07 17° SE
Cosmos 468 Rocket 4.3 19:20:28 10° N 19:25:29 44° ENE 19:28:51 20° SE
Cosmos 1025 Rocket 2.9 19:21:13 10° N 19:25:38 82° E 19:30:01 10° S
USA 229 DEB 3.8 19:21:12 10° NNW 19:28:22 78° NE 19:35:24 11° SE
USA 229 3.8 19:21:18 10° NNW 19:28:28 77° NE 19:35:26 11° SE
Cosmos 2074 Rocket 4.0 19:23:33 10° S 19:29:49 86° E 19:36:08 10° N
Spot 2 Rocket 3.4 19:25:06 10° SSE 19:30:07 72° ENE 19:35:12 10° N
Meteor 1-5 Rocket 4.3 19:27:59 10° S 19:33:58 89° E 19:39:53 10° N
Cosmos 2082 4.2 19:30:05 10° SSE 19:35:13 35° ESE 19:37:59 23° ENE
Cosmos 2184 Rocket 4.0 19:29:58 10° S 19:36:17 88° W 19:42:34 10° N
FengYun 1-2 T 4.3 19:31:50 10° S 19:37:18 79° WSW 19:42:51 10° NNW
Hubble Space Telescope 2.8 19:35:46 10° SSW 19:38:11 15° S 19:38:56 14° SSE
Spot 1 4.0 19:39:07 38° ESE 19:40:16 51° ENE 19:44:20 10° N
Meteor 2-13 Rocket 4.3 19:34:44 10° S 19:40:44 68° E 19:46:47 10° NNE
ATLAS 2AS CENTAUR R/B 4.5 19:39:50 10° NNW 19:45:20 19° NNE 19:48:06 16° NE
Cosmos 1544 Rocket 3.4 19:41:50 10° S 19:46:06 63° E 19:50:23 10° NNE
Cosmos 1814 Rocket 4.1 19:41:34 10° N 19:46:36 50° ENE 19:47:52 41° ESE
Envisat 3.7 19:47:02 33° ENE 19:47:02 33° ENE 19:51:16 10° N
Cosmos 405 Rocket 2.6 19:42:45 10° N 19:46:50 76° E 19:48:31 33° SSE
H-2A R/B 3.0 19:46:47 10° S 19:50:27 67° W 19:54:12 10° NNW
ALOS 3.2 19:46:08 10° S 19:50:38 49° W 19:55:11 10° NNW
CZ-2D R/B 3.1 19:49:35 32° SSE 19:51:17 89° E 19:55:07 10° NNW
USA 32 4.4 19:49:40 10° N 19:54:06 41° ENE 19:54:06 41° ENE
Nadezhda 3 Rocket 3.9 19:48:40 10° N 19:54:48 63° E 19:59:43 16° SSE
Cosmos 2237 Rocket 2.3 19:49:27 10° NNW 19:55:05 56° ENE 19:56:29 44° ESE
NOSS 0 Rocket 3.8 19:49:43 10° NNW 19:55:54 78° ENE 19:59:13 29° SSE
Cosmos 2297 Rocket 2.4 19:50:54 10° S 19:56:14 46° ESE 19:56:25 45° E
NOSS 3-1 (C) 4.1 19:51:26 10° NNW 19:58:55 60° NE 20:02:16 37° ESE
COSMOS 2428 3.8 19:53:50 10° NW 19:59:12 44° WSW 20:04:34 10° S
Cosmos 1066 Rocket 4.4 19:54:39 10° N 20:00:03 47° ENE 20:00:03 47° ENE
Meteor 1-12 Rocket 4.2 19:56:20 10° S 20:02:15 66° E 20:08:06 10° NNE
Cosmos 2341 Rocket 4.0 19:58:23 10° S 20:04:38 61° E 20:10:55 10° NNE
Okean 2 4.3 20:01:09 10° NNW 20:05:12 50° W 20:09:14 10° SSW
Cosmos 2154 Rocket 3.9 19:59:24 10° S 20:05:45 83° E 20:12:07 10° N
Cosmos 2219 Rocket 2.4 20:01:37 10° NNW 20:07:12 69° WSW 20:10:46 23° S
H-2A R/B 4.4 20:03:01 10° S 20:42:29 - E 20:06:25 23° SE
Abrixas rocket 4.0 20:07:22 10° W 20:09:57 28° NNW 20:09:57 28° NNW
Helios 1A 3.1 20:10:06 59° SSW 20:10:45 72° WSW 20:14:55 10° NNW
Helios 1B rocket 2.5 20:07:29 10° N 20:11:39 75° WNW 20:15:46 10° SSW
OAO 3 Rocket 4.5 20:07:44 10° SW 20:11:09 29° S 20:11:09 29° S
Cosmos 1486 Rocket 3.9 20:10:08 10° SSW 20:15:27 80° ESE 20:16:55 49° NNE
Cosmos 2227 Rocket 2.1 20:11:00 10° SSW 20:16:39 90° SSE 20:20:35 21° NNE
Atlas Centaur 2 3.9 20:13:39 10° SSW 20:18:27 22° S 20:18:27 22° S
Cosmos 1455 Rocket 3.5 20:19:17 10° SSW 20:23:36 59° W 20:27:56 10° N
BREEZE-M DEB (TANK) 3.7 20:20:41 10° WNW 20:23:54 48° SSW 20:25:26 39° S
Cosmos 841 Rocket 4.0 20:22:46 10° NNW 20:26:32 47° N 20:26:32 47° N
SL-16 R/B 3.1 20:25:28 10° NNW 20:29:17 37° NNE 20:29:17 37° NNE
ATLAS CENTAUR R/B 4.1 20:30:09 10° WSW 20:31:14 16° WSW 20:31:14 16° WSW
BREEZE-M DEB (TANK) 4.4 20:29:55 10° WNW 20:34:01 70° SSW 20:36:28 47° SSE
Resurs 01 Rocket 4.1 20:33:22 10° SW 20:36:37 20° W 20:39:54 10° NW
Cosmos 1763 Rocket 3.8 20:33:18 10° NNW 20:37:34 60° NW 20:37:34 60° NW
Meteor 2-8 Rocket 4.3 20:32:45 10° N 20:38:49 88° WNW 20:38:49 88° WNW
Cosmos 2333 Rocket 3.5 20:48:05 10° NW 20:53:16 36° WSW 20:55:05 29° SW
ATLAS 2AS CENTAUR R/B 3.9 21:30:23 10° NNW 21:35:33 39° N 21:35:33 39° N
Cosmos 2237 Rocket 4.4 21:34:39 10° NW 21:38:23 20° W 21:38:23 20° W
Cosmos 2297 Rocket 4.3 21:35:47 10° WSW 21:38:27 22° W 21:38:27 22° W
